Powrót do katalogu

STARLINK-5735

AktywnyŁącznośćVLEO
NORAD 55603·PAYLOAD·🇺🇸 United States

Wystrzelony Feb 12, 2023 z Cape Canaveral Space Force Station

Loading…

Następne Przeloty (najbliższe 24 godziny)

TLE

ŚwieżeSource: CelesTrak SupGP

Epoka: Sep 14, 2026, 21:04 UTC

1 55603C 23020AL  26257.87826389  .00005706  00000+0  20668-3 0  2578
2 55603  43.0023   5.6309 0001454 272.8340 143.2445 15.27572367    15

Śledź STARLINK-5735 w czasie rzeczywistym z AllMySat

Download on the App Store